Regional Weather Roundup
Issued by NWS Little Rock, AR

Home | Current Version | Previous Version | Graphics & Text | Print | Product List | Glossary On
Versions: 1 2 3 4 5 6 7 8 9 10 11 12 13 14 15 16 17 18 19 20 21 22 23 24 25 26 27 28
000
ASUS44 KLZK 242105
RWRLZK

WEATHER ROUNDUP FOR ARKANSAS
NATIONAL WEATHER SERVICE LITTLE ROCK AR
400 PM CDT WED AUG 24 2016

NOTE: "FAIR" INDICATES FEW OR NO CLOUDS BELOW 12,000 FEET WITH NO
SIGNIFICANT WEATHER AND/OR OBSTRUCTIONS TO VISIBILITY.

ARZ001-003-010-029-242200-
NORTHWEST ARKANSAS

CITY           SKY/WX    TMP DP  RH WIND       PRES   REMARKS
FAYETTEVILLE   SUNNY     89  72  56 S14       30.07F HX  96
FORT SMITH     MOSUNNY   93  66  40 S10       30.03F HX  96
HARRISON       MOSUNNY   89  72  56 S10G16    30.09F HX  96
BENTONVILLE    MOSUNNY   93  66  40 S9        30.07F HX  96
ROGERS         MOSUNNY   92  71  50 S14G20    30.06F HX  98
SILOAM SPGS    MOSUNNY   93  64  38 SW12G18     N/A  HX  95
HIGHFILL       SUNNY     95  68  41 S12G24    30.05F HX  99
SPRINGDALE     MOSUNNY   90  72  55 SW15      30.09F HX  96
$$

ARZ004-005-016-242200-
NORTH CENTRAL ARKANSAS

CITY           SKY/WX    TMP DP  RH WIND       PRES   REMARKS
BATESVILLE     MOSUNNY   93  72  49 S9        30.07F HX 100
FLIPPIN        MOSUNNY   91  72  52 SW7       30.04F HX  98
MTN HOME       MOSUNNY   90  74  59 SW8       30.07F HX  99
$$

ARZ040-041-242200-
WEST CENTRAL ARKANSAS

CITY           SKY/WX    TMP DP  RH WIND       PRES   REMARKS
MENA           SUNNY     91  70  49 SW3       30.11F HX  97
MOUNT IDA      SUNNY     91  65  41 VRB5      30.09  HX  93
$$

ARZ009-017-025-026-028-242200-
NORTHEAST ARKANSAS

CITY           SKY/WX    TMP DP  RH WIND       PRES   REMARKS
CORNING          N/A     91  81  70 S13       30.07F HX 110
JONESBORO      MOSUNNY   89  75  63 S16       30.07F HX  99
NEWPORT        MOSUNNY   93  76  57 S16       30.07F HX 105
WALNUT RIDGE   MOSUNNY   91  77  62 S17       30.05F HX 105
BLYTHEVILLE    MOSUNNY   91  77  63 S12G20    30.09F HX 104
NW BLYTHEVILLE MOSUNNY   93  77  59 SW14G25   30.08F HX 107
$$

ARZ022-023-033-042-044-242200-
CENTRAL ARKANSAS

CITY           SKY/WX    TMP DP  RH WIND       PRES   REMARKS
LITTLE ROCK    MOSUNNY   95  75  52 S9        30.08F HX 107
N LITTLE ROCK    N/A     92  75  58 SW6       30.05F HX 103
SEARCY         MOSUNNY   92  79  65 S9        30.09F HX 108
HOT SPRINGS    SUNNY     93  67  42 SW8       30.10F HX  96
RUSSELLVILLE   MOSUNNY   92  70  48 VRB5      30.06F HX  97
$$

ARZ036-242200-
EAST ARKANSAS

CITY           SKY/WX    TMP DP  RH WIND       PRES   REMARKS
WEST MEMPHIS   SUNNY     91  75  59 S12       30.09F HX 101
$$

ARZ050-053-066-070-073-242200-
SOUTHWEST ARKANSAS

CITY           SKY/WX    TMP DP  RH WIND       PRES   REMARKS
ARKADELPHIA    FAIR      92  77  61 S8        30.08F HX 105
CAMDEN         SUNNY     93  70  46 S5        30.08F HX  99
TEXARKANA      MOSUNNY   90  73  57 S5        30.09F HX  98
EL DORADO      MOSUNNY   93  72  50 SE7       30.10F HX 101
DE QUEEN       SUNNY     92  72  51 S8        30.05F HX  99
$$

ARZ056-057-069-242200-
SOUTHEAST ARKANSAS

CITY           SKY/WX    TMP DP  RH WIND       PRES   REMARKS
PINE BLUFF     MOSUNNY   92  73  53 S8        30.09F HX 100
STUTTGART      MOSUNNY   93  73  52 S12       30.09F HX 102
MONTICELLO     MOSUNNY   96  73  47 S7        30.09F HX 105

$$






USA.gov is the U.S. government's official web portal to all federal, state and local government web resources and services.